Location: Dillon
(41.1766°N, 107.0923°W)
Time: 16:18:44
(UTC+00:00)

SO-50 - Pass Details

Date: 10 July 2022
Orbit: 585 x 698 km, 64.6° (Epoch: 08 August)

Event Time Altitude Azimuth Distance (km) Brightness Sun altitude
Rises 07:06:17 0° 277° (W) 2,993 ? -26.6°
Reaches altitude 10° 07:10:44 10° 316° (NW) 2,116 ? -26.6°
Maximum altitude 07:11:46 11° 328° (NNW) 2,082 ? -26.6°
Drops below altitude 10° 07:12:49 10° 341° (NNW) 2,130 ? -26.6°
Sets 07:17:24 0° 20° (NNE) 3,072 ? -26.6°
